Regional Weather Roundup
Issued by NWS

Home | Current Version | Previous Version | Graphics & Text | Print | Product List | Glossary On
Versions: 1 2 3 4 5 6 7 8 9 10 11 12 13 14 15 16 17 18 19 20 21 22 23 24 25 26 27 28
000
ASUS45 KCYS 212110
RWRWY

WYOMING REGIONAL WEATHER ROUNDUP
NATIONAL WEATHER SERVICE CHEYENNE WY
200 PM MST TUE NOV 21 2017

NOTE:  "FAIR" INDICATES FEW OR NO CLOUDS BELOW 12,000 FEET
WITH NO SIGNIFICANT WEATHER AND/OR OBSTRUCTIONS TO VISIBILITY.

WYZ001-212200-
YELLOWSTONE NATIONAL PARK

CITY           SKY/WX    TMP DP  RH WIND       PRES   REMARKS
LK YELLOWSTONE   N/A     34  30  85 VRB3      30.33F
W YELLOWSTONE  NOT AVBL

$$
WYZ002>013-054>058-071-098>099-212200-
NORTHERN WYOMING

CITY           SKY/WX    TMP DP  RH WIND       PRES   REMARKS
JACKSON        FAIR      46  33  60 SW18      30.30F
CODY           FAIR      46  32  58 SE12      30.19F
GREYBULL       FAIR      44  29  55 S8        30.24F
WORLAND        FAIR      46  31  55 SE5       30.23F
SHERIDAN       FAIR      41  34  76 S3        30.20F
BUFFALO        FAIR      43  26  51 S10       30.20F
GILLETTE       FAIR      42  26  53 SW6       30.21F
HULETT         FAIR      34  27  75 SW10      30.24F WCI  26
NEWCASTLE      FAIR      36  21  55 W9        30.28S WCI  29

$$
WYZ014>020-022>026-101>103-212200-
CENTRAL WYOMING

CITY           SKY/WX    TMP DP  RH WIND       PRES   REMARKS
BIG PINEY      FAIR      47  33  58 N7        30.33R
PINEDALE       FAIR      41  32  70 NW9       30.33F
DUBOIS         FAIR      43  28  56 NW16G23   30.25F
LANDER         FAIR      49  31  49 VRB3      30.21F
RIVERTON       FAIR      47  33  58 SE6       30.22F
CASPER         FAIR      45  31  58 SW13      30.24F
DOUGLAS        FAIR      43  29  57 S5        30.26F

$$
WYZ021-027>030-104>119-212200-
SOUTHERN WYOMING

CITY           SKY/WX    TMP DP  RH WIND       PRES   REMARKS
EVANSTON       PTSUNNY   47  38  71 SW13      30.38S
KEMMERER       MOCLDY    43  34  70 W15       30.36S
FORT BRIDGER   CLOUDY    46  38  74 W8        30.39S
ROCK SPRINGS   FAIR      46  36  68 W22G29    30.33R
DIXON          FAIR      47  35  64 W6        30.34S
RAWLINS        PTSUNNY   47  32  56 W23       30.28S
SARATOGA       FAIR      43  34  70 W13       30.31R
LARAMIE        PTSUNNY   40  33  76 NW3       30.27S
CHEYENNE       CLOUDY    43  32  65 S9        30.27S
TORRINGTON     FAIR      47  27  45 VRB6      30.27F
PINE BLUFFS    FAIR      43  28  56 NW8       30.29S

$$




USA.gov is the U.S. government's official web portal to all federal, state and local government web resources and services.